Flag for Canada Weather past 2 weeks in Ottawa, Ontario, Canada

Now
45 °F

Passing clouds.


Feels Like: 39 °F
Forecast: 42 / 57 °F
Wind: 10 mph from East

Location: Ottawa Int'L. Ont.

Current Time: Apr 18, 2015 at 9:18:33 AM

Latest Report: Apr 18, 2015 at 8:00 AM


Visibility: 15 mi

Pressure: 29.94 "Hg

Humidity: 49%

Dew point: 27 °F

Location of OttawaLocation

Historic Weather in Ottawa — Graph

°F

Ottawa temperature yesterday

Maximum temperature yesterday: 70 °F (at 4:00 PM)
Minimum temperature yesterday: 48 °F (at 5:00 AM)
Average temperature yesterday: 58 °F

Past Weeks' High & Low Weather Summary

 TemperatureHumidityPressure
High73 °F (Apr 13, 4:00 PM)100% (Apr 4, 3:00 AM)30.45 "Hg (Apr 4, 3:00 AM)
Low23 °F (Apr 6, 2:00 AM)13% (Apr 15, 4:00 PM)29.40 "Hg (Apr 10, 4:00 PM)
Average42 °F58%30.08 "Hg
* Reported Apr 3 8:00 AM — Apr 18 8:00 AM, Ottawa, Weather by CustomWeather, © 2015

Note: Actual official high and low records may vary slightly from our data, if they occured in-between our weather recording intervals... More about our weather records

Advertising

Ottawa weather history for previous 24 hours

 ConditionsComfort  
Time TempWeatherWind HumidityBarometerVisibility
8:00 AM
Sat, Apr 18
45 °FPassing clouds.10 mph49%29.94 "Hg15 mi
7:00 AM39 °FPassing clouds.9 mph61%29.95 "Hg15 mi
6:00 AM41 °FPassing clouds.6 mph53%29.95 "Hg15 mi
5:00 AM43 °FPassing clouds.7 mph49%29.94 "Hg15 mi
4:00 AM43 °FPassing clouds.6 mph49%29.95 "Hg15 mi
3:00 AM46 °FPassing clouds.9 mph43%29.96 "Hg15 mi
2:00 AM43 °FPassing clouds.7 mph57%29.97 "Hg15 mi
1:00 AM48 °FPassing clouds.3 mph43%29.96 "Hg15 mi
12:00 AM48 °FPassing clouds.5 mph46%29.96 "Hg15 mi
11:00 PM
Fri, Apr 17
54 °FClear.7 mph38%29.94 "Hg15 mi
10:00 PM55 °FClear.7 mph41%29.92 "Hg15 mi
9:00 PM59 °FPassing clouds.13 mph39%29.90 "Hg15 mi
8:00 PM61 °FPassing clouds.13 mph39%29.87 "Hg15 mi
7:00 PM66 °FPassing clouds.14 mph28%29.85 "Hg15 mi
6:00 PM68 °FScattered clouds.16 mph28%29.83 "Hg15 mi
5:00 PM70 °FBroken clouds.15 mph27%29.83 "Hg15 mi
4:00 PM70 °FScattered clouds.15 mph27%29.84 "Hg15 mi
3:00 PM68 °FPassing clouds.22 mph28%29.86 "Hg15 mi
2:00 PM68 °FPassing clouds.16 mph28%29.87 "Hg15 mi
1:00 PM64 °FPassing clouds.13 mph37%29.88 "Hg15 mi
12:00 PM61 °FScattered clouds.12 mph48%29.90 "Hg15 mi
11:00 AM61 °FPartly sunny.15 mph52%29.93 "Hg15 mi
10:00 AM57 °FPartly sunny.14 mph63%29.93 "Hg15 mi
9:00 AM54 °FPassing clouds.14 mph67%29.93 "Hg15 mi
Weather by CustomWeather, © 2015

See weather overviewHow to use our weather pages